Location: Peebles
(55.6412°N, 3.1714°W)
Time: 17:51:40
(UTC+00:00)

FENGYUN 1C DEB - Visible Passes

Search period start: 28 November 2022 00:00
Search period end: 08 December 2022 00:00
Orbit: 773 x 850 km, 99.1° (Epoch: 28 November)

Date Brightness Start Highest point End Pass type
(mag) Time Alt. Az. Time Alt. Az. Time Alt. Az.
28 Nov ? 02:52:44 10° NE 02:54:28 11° NE 02:56:11 10° NNE visible
28 Nov ? 04:27:58 10° ESE 04:32:55 37° ENE 04:37:56 10° N visible
28 Nov ? 06:07:17 10° S 06:12:37 53° WSW 06:18:03 10° NNW visible
28 Nov ? 18:22:05 29° SE 18:22:05 29° SE 18:25:33 10° SSE visible
28 Nov ? 20:03:17 30° SW 20:03:17 30° SW 20:06:03 10° SW visible
29 Nov ? 04:05:19 10° ESE 04:09:52 27° NE 04:14:11 11° N visible
29 Nov ? 05:43:47 10° SSE 05:49:15 77° WSW 05:54:49 10° NNW visible
29 Nov ? 07:26:38 10° SW 07:30:03 17° W 07:33:30 10° NW visible
29 Nov ? 17:58:37 21° ESE 17:58:37 21° ESE 18:01:24 10° SE visible
29 Nov ? 19:39:48 37° SSW 19:39:48 37° SSW 19:42:57 10° SSW visible
30 Nov ? 03:42:54 10° E 03:46:52 21° NE 03:50:25 12° N visible
30 Nov ? 05:20:30 10° SSE 05:25:58 77° ENE 05:31:31 10° NNW visible
30 Nov ? 07:02:03 10° SW 07:06:25 24° W 07:10:50 10° NW visible
30 Nov ? 17:35:08 14° ESE 17:35:08 14° ESE 17:36:48 10° ESE visible
30 Nov ? 19:16:19 40° S 19:16:19 40° S 19:19:40 10° SSW visible
30 Nov ? 20:57:30 13° WSW 20:57:30 13° WSW 20:58:07 10° WSW visible
01 Dec ? 03:20:44 10° ENE 03:23:56 16° NE 03:26:39 11° NNE visible
01 Dec ? 04:57:24 10° SE 05:02:45 55° ENE 05:07:48 12° N visible
01 Dec ? 06:37:55 10° SSW 06:42:52 34° W 06:47:53 10° NNW visible
01 Dec ? 18:52:50 36° SSE 18:52:50 36° SSE 18:56:09 10° S visible
01 Dec ? 20:34:00 18° WSW 20:34:00 18° WSW 20:35:28 10° WSW visible
02 Dec ? 02:58:57 10° ENE 03:01:04 12° NE 03:02:53 11° NNE visible
02 Dec ? 04:34:31 10° SE 04:39:36 40° ENE 04:44:03 13° N visible
02 Dec ? 06:14:05 10° S 06:19:23 49° W 06:24:46 10° NNW visible
02 Dec ? 18:29:19 28° SE 18:29:19 28° SE 18:32:23 10° SSE visible
02 Dec ? 20:10:30 24° SW 20:10:30 24° SW 20:12:37 10° SW visible
03 Dec ? 04:11:50 10° ESE 04:16:30 29° NE 04:20:18 14° N visible
03 Dec ? 05:50:31 10° S 05:55:59 70° WSW 06:01:28 10° NNW visible
03 Dec ? 07:33:46 10° WSW 07:36:52 15° W 07:39:59 10° NW visible
03 Dec ? 18:05:48 21° ESE 18:05:48 21° ESE 18:08:19 10° SSE visible
03 Dec ? 19:46:59 30° SW 19:46:59 30° SW 19:49:35 10° SSW visible
04 Dec ? 03:49:21 10° E 03:53:29 22° NE 03:56:33 14° N visible
04 Dec ? 05:27:09 10° SSE 05:32:40 83° ENE 05:37:43 13° NNW visible
04 Dec ? 07:09:00 10° SW 07:13:12 22° W 07:17:25 10° NW visible
04 Dec ? 17:42:17 15° ESE 17:42:17 15° ESE 17:43:49 10° SE visible
04 Dec ? 19:23:28 33° SSW 19:23:28 33° SSW 19:26:20 10° SSW visible
05 Dec ? 03:27:07 10° E 03:30:32 17° NE 03:32:49 13° NNE visible
05 Dec ? 05:04:01 10° SE 05:09:25 60° ENE 05:13:58 15° N visible
05 Dec ? 06:44:46 10° SSW 06:49:37 31° W 06:54:31 10° NNW visible
05 Dec ? 18:59:55 33° SSE 18:59:55 33° SSE 19:02:51 10° S visible
05 Dec ? 20:41:05 14° WSW 20:41:05 14° WSW 20:41:58 10° WSW visible
06 Dec ? 03:05:12 10° ENE 03:07:38 13° NE 03:09:04 12° NNE visible
06 Dec ? 04:41:05 10° SE 04:46:14 43° ENE 04:50:14 16° N visible
06 Dec ? 06:20:52 10° S 06:26:07 45° W 06:31:23 10° NNW visible
06 Dec ? 18:36:22 28° SE 18:36:22 28° SE 18:39:08 10° SSE visible
06 Dec ? 20:17:33 20° SW 20:17:33 20° SW 20:19:09 10° SW visible
07 Dec ? 02:44:30 10° NE 02:44:48 10° NNE 02:45:05 10° NNE visible
07 Dec ? 04:18:20 10° ESE 04:23:08 32° NE 04:26:30 17° N visible
07 Dec ? 05:57:13 10° S 06:02:41 64° WSW 06:07:40 13° NNW visible
07 Dec ? 07:40:56 10° WSW 07:43:38 14° W 07:46:21 10° NW visible
07 Dec ? 18:12:49 21° SE 18:12:49 21° SE 18:15:09 10° SSE visible
07 Dec ? 19:54:00 25° SW 19:54:00 25° SW 19:56:09 10° SSW visible
